Location: RyutenAO
(34.8939°N, 134.0022°E)
Time: 10:03:22
(UTC+09:00)

Oscar 19 - Pass Details

Date: 09 April 2023
Orbit: 773 x 788 km, 98.8° (Epoch: 29 May)

Event Time Altitude Azimuth Distance (km) Brightness Sun altitude
Rises 04:13:54 0° 12° (NNE) 3,273 14.4 -18.0°
Reaches altitude 10° 04:16:13 10° 11° (N) 2,344 13.6 -17.5°
Maximum altitude 04:21:24 82° 285° (WNW) 796 10.6 -16.6°
Drops below altitude 10° 04:26:34 10° 198° (SSW) 2,338 12.7 -15.6°
Enters shadow 04:26:52 - 198° (SSW) 2,461 12.9 -15.5°
